Miscellaneous Local Product
Issued by NWS Hastings, NE

Home | Current Version | Previous Version | Text Only | Print | Product List | Glossary On
Versions: 1 2 3 4 5 6 7 8 9 10 11 12 13 14 15 16 17 18 19 20 21 22 23 24 25 26 27 28 29 30 31 32 33 34 35 36 37 38 39 40 41 42 43 44 45 46 47 48 49 50
703
AXUS43 KGID 190602
MISGRI

GID CWA HOURLY WEATHER ROUNDUP
NATIONAL WEATHER SERVICE HASTINGS NE
100 AM CDT THU OCT 19 2017

NOTE: "FAIR" INDICATES FEW OR NO CLOUDS BELOW 12,000 FEET WITH NO
SIGNIFICANT WEATHER AND/OR OBSTRUCTIONS TO VISIBILITY.

...SOUTH CENTRAL NEBRASKA...

CITY           SKY/WX    TMP DP  RH WIND       PRES   REMARKS
GRAND ISLAND   CLEAR     45  39  79 NW5       30.08F
HASTINGS       CLEAR     46  38  73 N3        30.08F
KEARNEY        NOT AVBL
ORD            CLOUDY    37  33  85 CALM      30.06F
YORK           CLEAR     46  41  81 N5        30.06F
AURORA         CLEAR     48  38  69 N5        30.07S
LEXINGTON      CLOUDY    40  36  86 W7        30.09S WCI  35
HOLDREGE       CLOUDY    41  36  80 N5        30.08F
HEBRON         CLEAR     52  42  70 CALM      30.05S

...NEBRASKA PANHANDLE...

CITY           SKY/WX    TMP DP  RH WIND       PRES   REMARKS
CHADRON        CLOUDY    61  29  29 S28G40    29.98F
ALLIANCE       CLOUDY    41  32  70 S8        30.07F
SCOTTSBLUFF    CLOUDY    46  31  55 E10       30.09S
SIDNEY         CLOUDY    40  31  70 S8        30.11F WCI  34

...WESTERN AND NORTH CENTRAL NEBRASKA...

CITY           SKY/WX    TMP DP  RH WIND       PRES   REMARKS
VALENTINE      CLOUDY    44  34  67 SW9       30.04F
AINSWORTH      CLOUDY    41  36  82 S8        30.05F
ONEILL         CLOUDY    47  37  66 S3        30.06S
BROKEN BOW     CLOUDY    39  35  86 CALM      30.08F
IMPERIAL       CLEAR     47  33  58 S3        30.10S
NORTH PLATTE   CLEAR     40  34  79 E5        30.10S
MCCOOK         CLEAR     46  35  65 CALM      30.09S

...EASTERN NEBRASKA...

CITY           SKY/WX    TMP DP  RH WIND       PRES   REMARKS
NORFOLK        CLOUDY    45  37  73 W3        30.05F
SO SIOUX CITY  CLOUDY    45  41  86 NW3       30.05S
TEKAMAH        CLEAR     44  41  89 NW5       30.04S
COLUMBUS       CLEAR     45  38  76 NW3       30.06F
ALBION         CLOUDY    39  36  88 NW5       30.07F
OMAHA EPPLEY   CLEAR     48  43  82 NW6       30.04S
OFFUTT AFB     CLEAR     47  45  91 CALM      30.03S
MILLARD        CLEAR     52  49  89 CALM      30.04S
LINCOLN        CLEAR     46  42  86 N6        30.05F
NEBRASKA CITY  CLEAR     56  51  82 CALM      30.04S
BEATRICE       CLEAR     50  48  90 E3        30.04S
FALLS CITY     CLEAR     50  47  89 CALM      30.03S

...NORTHERN KANSAS...

CITY           SKY/WX    TMP DP  RH WIND       PRES   REMARKS
GOODLAND       CLEAR     44  34  67 S9        30.11S
HILL CITY      CLEAR     45  38  76 W3        30.08F
NORTON         CLEAR     46  32  57 N5        30.07S
PHILLIPSBURG   CLEAR     45  37  76 W3        30.07S
HAYS           CLEAR     49  40  71 N7        30.06S
RUSSELL        CLEAR     54  42  64 N7        30.03F
CONCORDIA      CLEAR     53  49  86 E3        30.03S
SALINA         CLEAR     54  51  90 S6        30.03S
TOPEKA         CLEAR     51  51 100 CALM      30.04S



USA.gov is the U.S. government's official web portal to all federal, state and local government web resources and services.